Weather History for Rolla, MO

Change the Weather History Date:

Friday, March 16, 2012

  Actual Average Record
Temperature  
Mean Temperature 68 °F 45 °F  
Max Temperature 79 °F 56 °F 79 °F (2012)
Min Temperature 56 °F 34 °F 14 °F (1900)
Degree Days  
Heating Degree Days 0 20  
Month to date heating degree days 200 358  
Since 1 July heating degree days 3451 4148  
Cooling Degree Days 3 0  
Month to date cooling degree days 14 0  
Year to date cooling degree days 14 0  
Growing Degree Days 16 (Base 50)    
Moisture  
Dew Point 57 °F    
Average Humidity 67    
Maximum Humidity 86    
Minimum Humidity 48    
Precipitation  
Precipitation 0.00 in 0.11 in 0.83 in (1980)
Month to date precipitation 1.16 1.51  
Year to date precipitation 3.96 5.61  
Sea Level Pressure  
Sea Level Pressure 30.03 in    
Wind  
Wind Speed 10 mph (South)    
Max Wind Speed 16 mph    
Max Gust Speed 20 mph    
Visibility 10 miles    
Events Thunderstorm    
T = Trace of Precipitation, MM = Missing Value Source: NWS Daily Summary

Daily Weather History Graph

Daily Weather History Graph

Search for Another Location

Airport:

Trip Planner

Search our weather history database for the weather conditions in past years. The results will help you decide how hot, cold, wet, or windy it might be!

Date:

Astronomy

Mar. 16, 2012 Rise Set
Actual Time 7:15 AM CDT 7:15 PM CDT
Civil Twilight 6:49 AM CDT 7:41 PM CDT
Nautical Twilight 6:19 AM CDT 8:12 PM CDT
Astronomical Twilight 5:48 AM CDT 8:43 PM CDT
Moon 3:29 AM CDT (3/16) 1:41 PM CDT (3/16)
Length of Visible Light 12h 52m
Length of Day
11h 59m
Waning Crescent, 32% of the Moon is Illuminated
Mar 16
Waning Crescent
Mar 22
New
Mar 30
First Quarter
Apr 6
Full
Apr 13
Last Quarter

Hourly Weather History & Observations

Time (CDT) Temp. Dew Point Humidity Pressure Visibility Wind Dir Wind Speed Gust Speed Precip Events Conditions
12:49 AM 57.2 °F 53.6 °F 88% 30.09 in 10.0 mi South 5.8 mph - 0.10 in Thunderstorm Mostly Cloudy
12:53 AM 57.0 °F 53.1 °F 87% 30.07 in 10.0 mi ENE 4.6 mph - 0.10 in Thunderstorm Mostly Cloudy
1:21 AM 57.2 °F 53.6 °F 88% 30.07 in 10.0 mi SE 11.5 mph - N/A   Partly Cloudy
1:53 AM 57.9 °F 54.0 °F 87% 30.06 in 10.0 mi SSE 10.4 mph - N/A   Partly Cloudy
2:53 AM 57.0 °F 53.1 °F 87% 30.05 in 10.0 mi South 9.2 mph - N/A   Clear
3:53 AM 57.0 °F 52.0 °F 83% 30.03 in 10.0 mi SSW 9.2 mph - N/A   Clear
4:53 AM 57.0 °F 53.1 °F 87% 30.02 in 10.0 mi South 12.7 mph - N/A   Clear
5:53 AM 55.9 °F 52.0 °F 87% 30.05 in 10.0 mi South 6.9 mph - N/A   Partly Cloudy
6:53 AM 57.0 °F 53.1 °F 87% 30.06 in 10.0 mi SSW 10.4 mph - N/A   Partly Cloudy
7:53 AM 57.9 °F 54.0 °F 87% 30.06 in 10.0 mi SSW 10.4 mph - N/A   Partly Cloudy
8:53 AM 60.1 °F 55.9 °F 86% 30.06 in 10.0 mi SSW 10.4 mph - N/A   Clear
9:53 AM 63.0 °F 57.0 °F 81% 30.06 in 10.0 mi SSW 12.7 mph - N/A   Clear
10:53 AM 68.0 °F 60.1 °F 76% 30.06 in 10.0 mi SSW 12.7 mph - N/A   Clear
11:53 AM 73.4 °F 62.6 °F 69% 30.07 in 10.0 mi SSW 11.5 mph - N/A   Clear
12:53 PM 75.0 °F 62.1 °F 64% 30.05 in 10.0 mi South 9.2 mph - N/A   Scattered Clouds
1:53 PM 75.9 °F 62.1 °F 62% 30.03 in 10.0 mi SSW 11.5 mph - N/A   Partly Cloudy
2:53 PM 75.2 °F 60.8 °F 61% 30.02 in 10.0 mi SW 9.2 mph - N/A   Mostly Cloudy
3:53 PM 78.8 °F 60.8 °F 54% 30.00 in 10.0 mi SSE 15.0 mph 19.6 mph N/A   Scattered Clouds
4:53 PM 78.1 °F 57.9 °F 50% 29.97 in 10.0 mi South 10.4 mph - N/A   Partly Cloudy
5:53 PM 75.9 °F 59.0 °F 56% 29.97 in 10.0 mi South 8.1 mph - N/A   Scattered Clouds
6:53 PM 73.9 °F 59.0 °F 59% 29.97 in 10.0 mi SSE 10.4 mph - N/A   Partly Cloudy
7:53 PM 70.0 °F 57.9 °F 65% 29.99 in 10.0 mi South 8.1 mph - N/A   Clear
8:53 PM 69.1 °F 57.9 °F 68% 30.00 in 10.0 mi South 6.9 mph - N/A   Clear
9:53 PM 66.2 °F 59.0 °F 78% 30.03 in 10.0 mi South 8.1 mph - N/A   Clear
10:53 PM 66.9 °F 61.0 °F 81% 30.01 in 10.0 mi South 6.9 mph - N/A   Clear
11:53 PM 66.0 °F 61.0 °F 84% 30.01 in 10.0 mi South 10.4 mph - N/A   Clear